Location: São Paulo
(23.5507°S, 46.6334°W)
Time: 09:59:49
(UTC-03:00)

Explorer 7 - Pass Details

Date: 18 February 2026
Orbit: 430 x 541 km, 50.2° (Epoch: 11 March)

Event Time Altitude Azimuth Distance (km) Brightness Sun altitude
Rises 09:48:29 0° 211° (SSW) 2,510 9.9 52.0°
Reaches altitude 10° 09:50:51 10° 201° (SSW) 1,609 9.1 52.5°
Maximum altitude 09:54:06 31° 137° (SE) 815 8.4 53.2°
Drops below altitude 10° 09:57:15 10° 72° (ENE) 1,551 9.9 53.9°
Sets 09:59:29 0° 61° (ENE) 2,403 10.6 54.4°
